リニア-グラウアー彗星

P/2010 TO20 ( LINEAR-Grauer ) 2022

English version
Home page
Updated on January 22, 2023

---------------------------------------------------------------------

・ プロフィール

・ 軌道要素

Epoch 2023 Feb. 25.0 TT = JDT 2460000.5                                         
T 2022 Nov. 28.53452 TT                                 Rudenko                 
q   5.5080130            (2000.0)            P               Q                  
n   0.06996960     Peri.  267.57598     +0.65350857     +0.75633819             
a   5.8326126      Node    43.27921     -0.67613917     +0.60092443             
e   0.0556525      Incl.    2.47875     -0.34023870     +0.25853892             
P  14.1                                                                         
>From 81 observations 2009 July 14-2012 Nov. 17, mean residual 0".8.             

・ 光度変化

        m1 = 11.0 + 5 logΔ + 10.0 log r

---------------------------------------------------------------------

軌道要素はM.P.E.C. 2023-B57に掲載されたものです。
光度グラフはComet for Windowsで作成したものです。

---------------------------------------------------------------------

Copyright(C) Seiichi Yoshida (comet@aerith.net). All rights reserved.